Time,TemperatureF,DewpointF,PressureIn,WindDirection,WindDirectionDegrees,WindSpeedMPH,WindSpeedGustMPH,Humidity,HourlyPrecipIn,Conditions,Clouds,dailyrainin,SoftwareType,DateUTC
2013-01-19 00:00:00,21.5,6.2,30.34,SSE,165,0.0,0.0,51,0.00,,,0.00,WeatherTracker,2013-01-19 05:00:00,
2013-01-19 00:01:00,21.5,6.2,30.34,SE,138,2.0,0.0,51,0.00,,,0.00,WeatherTracker,2013-01-19 05:01:00,
2013-01-19 00:06:00,21.8,6.5,30.33,South,188,0.0,0.0,51,0.00,,,0.00,WeatherTracker,2013-01-19 05:06:00,
2013-01-19 00:11:00,22.0,6.7,30.33,South,171,1.0,0.0,51,0.00,,,0.00,WeatherTracker,2013-01-19 05:11:00,
2013-01-19 00:16:00,22.3,6.5,30.33,South,169,1.0,0.0,50,0.00,,,0.00,WeatherTracker,2013-01-19 05:16:00,
2013-01-19 00:21:00,22.6,6.8,30.32,South,169,0.0,0.0,50,0.00,,,0.00,WeatherTracker,2013-01-19 05:21:00,
2013-01-19 00:27:00,22.7,6.4,30.31,SSE,147,2.0,0.0,49,0.00,,,0.00,WeatherTracker,2013-01-19 05:27:00,
2013-01-19 00:32:00,22.9,6.6,30.32,South,172,0.0,0.0,49,0.00,,,0.00,WeatherTracker,2013-01-19 05:32:00,
2013-01-19 00:37:00,23.0,6.7,30.32,SSE,158,1.0,0.0,49,0.00,,,0.00,WeatherTracker,2013-01-19 05:37:00,
2013-01-19 00:42:00,23.1,7.3,30.31,West,268,1.0,0.0,50,0.00,,,0.00,WeatherTracker,2013-01-19 05:42:00,
2013-01-19 00:47:00,23.3,7.0,30.31,South,171,2.0,0.0,49,0.00,,,0.00,WeatherTracker,2013-01-19 05:47:00,
2013-01-19 00:52:00,23.4,6.6,30.31,SE,142,0.0,0.0,48,0.00,,,0.00,WeatherTracker,2013-01-19 05:52:00,
2013-01-19 00:57:00,23.5,7.2,30.32,SSE,159,1.0,0.0,49,0.00,,,0.00,WeatherTracker,2013-01-19 05:57:00,
2013-01-19 01:02:00,23.6,7.3,30.32,SSE,161,0.0,0.0,49,0.00,,,0.00,WeatherTracker,2013-01-19 06:02:00,
2013-01-19 01:07:00,23.7,7.8,30.32,WSW,254,3.0,0.0,50,0.00,,,0.00,WeatherTracker,2013-01-19 06:07:00,
2013-01-19 01:12:00,23.9,8.4,30.32,South,169,1.0,0.0,51,0.00,,,0.00,WeatherTracker,2013-01-19 06:12:00,
2013-01-19 01:17:00,23.9,8.4,30.31,South,176,1.0,0.0,51,0.00,,,0.00,WeatherTracker,2013-01-19 06:17:00,
2013-01-19 01:22:00,24.0,9.0,30.31,SSW,195,1.0,0.0,52,0.00,,,0.00,WeatherTracker,2013-01-19 06:22:00,
2013-01-19 01:27:00,24.0,9.0,30.30,South,171,1.0,0.0,52,0.00,,,0.00,WeatherTracker,2013-01-19 06:27:00,
2013-01-19 01:32:00,24.0,9.4,30.30,SSE,167,3.0,0.0,53,0.00,,,0.00,WeatherTracker,2013-01-19 06:32:00,
2013-01-19 01:37:00,24.2,9.6,30.30,SSE,162,2.0,0.0,53,0.00,,,0.00,WeatherTracker,2013-01-19 06:37:00,
2013-01-19 01:42:00,24.3,10.1,30.30,South,182,7.0,0.0,54,0.00,,,0.00,WeatherTracker,2013-01-19 06:42:00,
2013-01-19 01:47:00,24.4,10.2,30.30,South,180,0.0,0.0,54,0.00,,,0.00,WeatherTracker,2013-01-19 06:47:00,
2013-01-19 01:52:00,24.6,9.9,30.29,SSE,149,4.0,0.0,53,0.00,,,0.00,WeatherTracker,2013-01-19 06:52:00,
2013-01-19 01:57:00,24.7,10.0,30.29,South,169,3.0,0.0,53,0.00,,,0.00,WeatherTracker,2013-01-19 06:57:00,
2013-01-19 02:02:00,24.9,10.6,30.29,SSE,163,4.0,0.0,54,0.00,,,0.00,WeatherTracker,2013-01-19 07:02:00,
2013-01-19 02:07:00,25.0,10.7,30.29,SSE,154,3.0,0.0,54,0.00,,,0.00,WeatherTracker,2013-01-19 07:07:00,
2013-01-19 02:13:00,25.1,10.8,30.29,SSE,151,1.0,0.0,54,0.00,,,0.00,WeatherTracker,2013-01-19 07:13:00,
2013-01-19 02:18:00,25.1,10.8,30.29,South,175,1.0,0.0,54,0.00,,,0.00,WeatherTracker,2013-01-19 07:18:00,
2013-01-19 02:23:00,25.2,11.3,30.28,SSE,167,2.0,0.0,55,0.00,,,0.00,WeatherTracker,2013-01-19 07:23:00,
2013-01-19 02:28:00,25.4,11.9,30.28,ESE,116,4.0,0.0,56,0.00,,,0.00,WeatherTracker,2013-01-19 07:28:00,
2013-01-19 02:33:00,25.5,12.0,30.27,South,175,0.0,0.0,56,0.00,,,0.00,WeatherTracker,2013-01-19 07:33:00,
2013-01-19 02:38:00,25.7,11.8,30.26,SE,136,3.0,0.0,55,0.00,,,0.00,WeatherTracker,2013-01-19 07:38:00,
2013-01-19 02:43:00,25.7,12.2,30.26,South,185,0.0,0.0,56,0.00,,,0.00,WeatherTracker,2013-01-19 07:43:00,
2013-01-19 02:48:00,25.8,12.3,30.26,SSE,159,4.0,0.0,56,0.00,,,0.00,WeatherTracker,2013-01-19 07:48:00,
2013-01-19 02:53:00,26.0,12.5,30.25,SSW,202,1.0,0.0,56,0.00,,,0.00,WeatherTracker,2013-01-19 07:53:00,
2013-01-19 02:58:00,26.1,12.6,30.25,SSE,166,4.0,0.0,56,0.00,,,0.00,WeatherTracker,2013-01-19 07:58:00,
2013-01-19 03:03:00,26.2,13.1,30.25,SE,133,3.0,0.0,57,0.00,,,0.00,WeatherTracker,2013-01-19 08:03:00,
2013-01-19 03:08:00,26.3,13.2,30.25,SSE,150,2.0,0.0,57,0.00,,,0.00,WeatherTracker,2013-01-19 08:08:00,
2013-01-19 03:13:00,26.3,13.6,30.24,SE,130,6.0,0.0,58,0.00,,,0.00,WeatherTracker,2013-01-19 08:13:00,
2013-01-19 03:18:00,26.5,13.7,30.24,SSE,163,5.0,0.0,58,0.00,,,0.00,WeatherTracker,2013-01-19 08:18:00,
2013-01-19 03:23:00,26.6,14.2,30.24,SSE,165,1.0,0.0,59,0.00,,,0.00,WeatherTracker,2013-01-19 08:23:00,
2013-01-19 03:28:00,26.6,14.2,30.23,SSE,161,2.0,0.0,59,0.00,,,0.00,WeatherTracker,2013-01-19 08:28:00,
2013-01-19 03:33:00,26.8,14.8,30.23,ESE,105,5.0,0.0,60,0.00,,,0.00,WeatherTracker,2013-01-19 08:33:00,
2013-01-19 03:38:00,26.9,14.9,30.24,SSE,157,3.0,0.0,60,0.00,,,0.00,WeatherTracker,2013-01-19 08:38:00,
2013-01-19 03:44:00,27.0,15.0,30.23,SSE,167,2.0,0.0,60,0.00,,,0.00,WeatherTracker,2013-01-19 08:44:00,
2013-01-19 03:49:00,27.2,15.6,30.23,SSE,161,1.0,0.0,61,0.00,,,0.00,WeatherTracker,2013-01-19 08:49:00,
2013-01-19 03:54:00,27.4,15.7,30.23,SSE,152,1.0,0.0,61,0.00,,,0.00,WeatherTracker,2013-01-19 08:54:00,
2013-01-19 03:59:00,27.5,15.8,30.23,SSE,158,5.0,0.0,61,0.00,,,0.00,WeatherTracker,2013-01-19 08:59:00,
2013-01-19 04:04:00,27.7,16.0,30.22,SSE,149,3.0,0.0,61,0.00,,,0.00,WeatherTracker,2013-01-19 09:04:00,
2013-01-19 04:09:00,27.9,16.6,30.22,SSE,149,1.0,0.0,62,0.00,,,0.00,WeatherTracker,2013-01-19 09:09:00,
2013-01-19 04:14:00,27.9,16.6,30.21,West,263,11.0,0.0,62,0.00,,,0.00,WeatherTracker,2013-01-19 09:14:00,
2013-01-19 04:19:00,28.1,16.8,30.21,West,259,1.0,0.0,62,0.00,,,0.00,WeatherTracker,2013-01-19 09:19:00,
2013-01-19 04:24:00,28.1,17.2,30.20,South,187,2.0,0.0,63,0.00,,,0.00,WeatherTracker,2013-01-19 09:24:00,
2013-01-19 04:29:00,28.2,17.2,30.21,West,260,11.0,0.0,63,0.00,,,0.00,WeatherTracker,2013-01-19 09:29:00,
2013-01-19 04:34:00,28.4,17.4,30.21,SSE,163,3.0,0.0,63,0.00,,,0.00,WeatherTracker,2013-01-19 09:34:00,
2013-01-19 04:39:00,28.5,17.9,30.20,South,187,0.0,0.0,64,0.00,,,0.00,WeatherTracker,2013-01-19 09:39:00,
2013-01-19 04:44:00,28.6,18.0,30.20,SSE,153,0.0,0.0,64,0.00,,,0.00,WeatherTracker,2013-01-19 09:44:00,
2013-01-19 04:49:00,28.8,18.2,30.20,SSE,148,2.0,0.0,64,0.00,,,0.00,WeatherTracker,2013-01-19 09:49:00,
2013-01-19 04:54:00,29.0,18.4,30.20,SSE,153,1.0,0.0,64,0.00,,,0.00,WeatherTracker,2013-01-19 09:54:00,
2013-01-19 04:59:00,29.3,19.0,30.19,SSE,165,2.0,0.0,65,0.00,,,0.00,WeatherTracker,2013-01-19 09:59:00,
2013-01-19 05:04:00,29.4,19.1,30.19,SSE,158,0.0,0.0,65,0.00,,,0.00,WeatherTracker,2013-01-19 10:04:00,
2013-01-19 05:09:00,29.7,19.4,30.19,South,173,6.0,0.0,65,0.00,,,0.00,WeatherTracker,2013-01-19 10:09:00,
2013-01-19 05:14:00,29.8,19.5,30.18,NW,309,1.0,0.0,65,0.00,,,0.00,WeatherTracker,2013-01-19 10:14:00,
2013-01-19 05:19:00,30.0,19.7,30.18,SSE,164,3.0,0.0,65,0.00,,,0.00,WeatherTracker,2013-01-19 10:19:00,
2013-01-19 05:24:00,30.2,20.2,30.18,SSE,162,2.0,0.0,66,0.00,,,0.00,WeatherTracker,2013-01-19 10:24:00,
2013-01-19 05:29:00,30.3,20.3,30.18,South,171,3.0,0.0,66,0.00,,,0.00,WeatherTracker,2013-01-19 10:29:00,
2013-01-19 05:34:00,30.5,20.5,30.18,SSE,153,3.0,0.0,66,0.00,,,0.00,WeatherTracker,2013-01-19 10:34:00,
2013-01-19 05:40:00,30.6,20.6,30.17,WSW,254,2.0,0.0,66,0.00,,,0.00,WeatherTracker,2013-01-19 10:40:00,
2013-01-19 05:45:00,30.7,21.1,30.17,South,173,4.0,0.0,67,0.00,,,0.00,WeatherTracker,2013-01-19 10:45:00,
2013-01-19 05:50:00,31.0,21.3,30.16,South,173,4.0,0.0,67,0.00,,,0.00,WeatherTracker,2013-01-19 10:50:00,
2013-01-19 05:55:00,31.1,21.4,30.16,SSE,153,3.0,0.0,67,0.00,,,0.00,WeatherTracker,2013-01-19 10:55:00,
2013-01-19 06:00:00,31.2,21.9,30.17,SSE,159,1.0,0.0,68,0.00,,,0.00,WeatherTracker,2013-01-19 11:00:00,
2013-01-19 06:05:00,31.3,22.0,30.16,SSE,154,1.0,0.0,68,0.00,,,0.00,WeatherTracker,2013-01-19 11:05:00,
2013-01-19 06:10:00,31.4,22.1,30.16,WNW,287,3.0,0.0,68,0.00,,,0.00,WeatherTracker,2013-01-19 11:10:00,
2013-01-19 07:47:00,33.0,23.6,30.14,SE,140,0.0,0.0,68,0.00,,,0.00,WeatherTracker,2013-01-19 12:47:00,
2013-01-19 07:48:00,33.0,23.6,30.14,SSE,152,4.0,0.0,68,0.00,,,0.00,WeatherTracker,2013-01-19 12:48:00,
2013-01-19 07:53:00,33.2,23.8,30.14,South,171,2.0,0.0,68,0.00,,,0.00,WeatherTracker,2013-01-19 12:53:00,
2013-01-19 07:58:00,33.5,24.1,30.13,SW,225,2.0,0.0,68,0.00,,,0.00,WeatherTracker,2013-01-19 12:58:00,
2013-01-19 08:03:00,33.7,24.3,30.13,WSW,257,0.0,0.0,68,0.00,,,0.00,WeatherTracker,2013-01-19 13:03:00,
2013-01-19 08:08:00,34.1,24.3,30.13,SSE,166,4.0,0.0,67,0.00,,,0.00,WeatherTracker,2013-01-19 13:08:00,
2013-01-19 08:13:00,34.3,24.5,30.13,West,270,1.0,0.0,67,0.00,,,0.00,WeatherTracker,2013-01-19 13:13:00,
2013-01-19 08:18:00,34.7,24.9,30.13,SSE,168,2.0,0.0,67,0.00,,,0.00,WeatherTracker,2013-01-19 13:18:00,
2013-01-19 08:24:00,34.9,25.1,30.13,SSE,167,0.0,0.0,67,0.00,,,0.00,WeatherTracker,2013-01-19 13:24:00,
2013-01-19 08:29:00,35.2,25.4,30.13,SE,128,0.0,0.0,67,0.00,,,0.00,WeatherTracker,2013-01-19 13:29:00,
2013-01-19 08:34:00,35.4,25.2,30.12,SSE,149,7.0,0.0,66,0.00,,,0.00,WeatherTracker,2013-01-19 13:34:00,
2013-01-19 08:39:00,35.7,25.5,30.12,South,186,5.0,0.0,66,0.00,,,0.00,WeatherTracker,2013-01-19 13:39:00,
2013-01-19 08:44:00,36.1,25.9,30.12,ESE,117,2.0,0.0,66,0.00,,,0.00,WeatherTracker,2013-01-19 13:44:00,
2013-01-19 08:49:00,36.4,26.1,30.11,SSE,156,0.0,0.0,66,0.00,,,0.00,WeatherTracker,2013-01-19 13:49:00,
2013-01-19 08:54:00,36.7,26.1,30.12,SSE,164,5.0,0.0,65,0.00,,,0.00,WeatherTracker,2013-01-19 13:54:00,
2013-01-19 08:59:00,37.1,26.4,30.12,SSE,157,7.0,0.0,65,0.00,,,0.00,WeatherTracker,2013-01-19 13:59:00,
2013-01-19 09:04:00,37.4,26.7,30.12,SSW,196,2.0,0.0,65,0.00,,,0.00,WeatherTracker,2013-01-19 14:04:00,
2013-01-19 09:09:00,37.7,27.0,30.13,SW,232,2.0,0.0,65,0.00,,,0.00,WeatherTracker,2013-01-19 14:09:00,
2013-01-19 09:14:00,38.2,27.1,30.13,SSE,163,4.0,0.0,64,0.00,,,0.00,WeatherTracker,2013-01-19 14:14:00,
2013-01-19 09:19:00,38.4,27.3,30.12,South,171,8.0,0.0,64,0.00,,,0.00,WeatherTracker,2013-01-19 14:19:00,
2013-01-19 09:24:00,38.5,27.4,30.12,SE,143,7.0,0.0,64,0.00,,,0.00,WeatherTracker,2013-01-19 14:24:00,
2013-01-19 09:29:00,38.7,27.6,30.11,SE,143,3.0,0.0,64,0.00,,,0.00,WeatherTracker,2013-01-19 14:29:00,
2013-01-19 09:34:00,38.8,27.7,30.11,SSE,165,1.0,0.0,64,0.00,,,0.00,WeatherTracker,2013-01-19 14:34:00,
2013-01-19 09:39:00,38.9,27.8,30.10,SSE,151,2.0,0.0,64,0.00,,,0.00,WeatherTracker,2013-01-19 14:39:00,
2013-01-19 09:44:00,39.0,27.9,30.10,SE,139,4.0,0.0,64,0.00,,,0.00,WeatherTracker,2013-01-19 14:44:00,
2013-01-19 09:49:00,39.3,27.8,30.09,SSE,160,6.0,0.0,63,0.00,,,0.00,WeatherTracker,2013-01-19 14:49:00,
2013-01-19 09:54:00,39.8,27.9,30.09,SE,134,4.0,0.0,62,0.01,,,0.01,WeatherTracker,2013-01-19 14:54:00,
2013-01-19 09:59:00,40.0,27.7,30.10,SSE,167,5.0,0.0,61,0.01,,,0.01,WeatherTracker,2013-01-19 14:59:00,
2013-01-19 10:04:00,40.1,27.7,30.09,NNW,331,2.0,0.0,61,0.01,,,0.01,WeatherTracker,2013-01-19 15:04:00,
2013-01-19 10:09:00,40.4,28.0,30.09,SSE,168,6.0,0.0,61,0.01,,,0.01,WeatherTracker,2013-01-19 15:09:00,
2013-01-19 10:14:00,40.7,27.9,30.09,WNW,301,4.0,0.0,60,0.01,,,0.01,WeatherTracker,2013-01-19 15:14:00,
2013-01-19 10:20:00,41.0,27.8,30.09,East,100,2.0,0.0,59,0.01,,,0.01,WeatherTracker,2013-01-19 15:20:00,
2013-01-19 10:25:00,41.5,27.8,30.09,West,265,7.0,0.0,58,0.01,,,0.01,WeatherTracker,2013-01-19 15:25:00,
2013-01-19 10:30:00,41.7,28.0,30.08,SSE,166,2.0,0.0,58,0.01,,,0.01,WeatherTracker,2013-01-19 15:30:00,
2013-01-19 10:35:00,41.8,27.7,30.08,SSW,203,5.0,0.0,57,0.01,,,0.01,WeatherTracker,2013-01-19 15:35:00,
2013-01-19 10:40:00,41.8,27.7,30.07,SSE,163,6.0,0.0,57,0.01,,,0.01,WeatherTracker,2013-01-19 15:40:00,
2013-01-19 10:45:00,41.9,27.8,30.07,SSE,150,6.0,0.0,57,0.01,,,0.01,WeatherTracker,2013-01-19 15:45:00,
2013-01-19 10:50:00,42.0,27.5,30.06,WSW,258,7.0,0.0,56,0.01,,,0.01,WeatherTracker,2013-01-19 15:50:00,
2013-01-19 10:55:00,42.1,27.1,30.05,SSE,157,2.0,0.0,55,0.00,,,0.01,WeatherTracker,2013-01-19 15:55:00,
2013-01-19 11:00:00,42.3,27.3,30.05,SE,142,6.0,0.0,55,0.00,,,0.01,WeatherTracker,2013-01-19 16:00:00,
2013-01-19 11:05:00,42.5,27.0,30.05,SE,130,3.0,0.0,54,0.01,,,0.02,WeatherTracker,2013-01-19 16:05:00,
2013-01-19 11:10:00,42.6,27.1,30.04,SSW,193,3.0,0.0,54,0.01,,,0.02,WeatherTracker,2013-01-19 16:10:00,
2013-01-19 11:15:00,42.7,27.2,30.04,SSE,149,4.0,0.0,54,0.01,,,0.02,WeatherTracker,2013-01-19 16:15:00,
2013-01-19 11:20:00,42.9,27.0,30.03,SE,129,8.0,0.0,53,0.01,,,0.02,WeatherTracker,2013-01-19 16:20:00,
2013-01-19 11:25:00,43.1,27.1,30.03,SSE,167,8.0,0.0,53,0.01,,,0.02,WeatherTracker,2013-01-19 16:25:00,
2013-01-19 11:30:00,43.2,27.2,30.02,South,169,0.0,0.0,53,0.01,,,0.02,WeatherTracker,2013-01-19 16:30:00,
2013-01-19 11:35:00,43.3,26.9,30.02,SSW,203,4.0,0.0,52,0.01,,,0.02,WeatherTracker,2013-01-19 16:35:00,
2013-01-19 11:40:00,43.4,27.0,30.02,SE,132,2.0,0.0,52,0.02,,,0.03,WeatherTracker,2013-01-19 16:40:00,
2013-01-19 11:45:00,43.6,26.7,30.01,South,179,2.0,0.0,51,0.02,,,0.03,WeatherTracker,2013-01-19 16:45:00,
2013-01-19 11:50:00,43.7,26.8,30.01,SE,142,0.0,0.0,51,0.02,,,0.03,WeatherTracker,2013-01-19 16:50:00,
2013-01-19 23:00:00,40.1,32.5,29.86,SSE,155,3.0,0.0,74,0.00,,,0.07,WeatherTracker,2013-01-20 04:00:00,
2013-01-19 23:05:00,40.3,32.7,29.86,SSE,151,3.0,0.0,74,0.00,,,0.07,WeatherTracker,2013-01-20 04:05:00,
2013-01-19 23:10:00,40.4,32.8,29.86,South,180,0.0,0.0,74,0.00,,,0.07,WeatherTracker,2013-01-20 04:10:00,
2013-01-19 23:15:00,40.7,32.7,29.85,SE,138,1.0,0.0,73,0.00,,,0.07,WeatherTracker,2013-01-20 04:15:00,
2013-01-19 23:20:00,40.7,32.7,29.85,SSE,155,3.0,0.0,73,0.00,,,0.07,WeatherTracker,2013-01-20 04:20:00,
2013-01-19 23:25:00,40.6,33.0,29.85,South,174,4.0,0.0,74,0.00,,,0.07,WeatherTracker,2013-01-20 04:25:00,
2013-01-19 23:30:00,40.6,33.0,29.84,SSE,161,2.0,0.0,74,0.00,,,0.07,WeatherTracker,2013-01-20 04:30:00,
2013-01-19 23:35:00,40.5,32.9,29.84,South,171,5.0,0.0,74,0.00,,,0.07,WeatherTracker,2013-01-20 04:35:00,
2013-01-19 23:40:00,40.5,33.2,29.84,South,169,5.0,0.0,75,0.00,,,0.07,WeatherTracker,2013-01-20 04:40:00,
2013-01-19 23:45:00,40.6,33.0,29.84,SSE,168,6.0,0.0,74,0.00,,,0.07,WeatherTracker,2013-01-20 04:45:00,
2013-01-19 23:50:00,40.6,33.0,29.84,SE,145,3.0,0.0,74,0.00,,,0.07,WeatherTracker,2013-01-20 04:50:00,
2013-01-19 23:55:00,40.6,33.0,29.83,SSE,157,1.0,0.0,74,0.00,,,0.07,WeatherTracker,2013-01-20 04:55:00,